Stations météo

Publicité
Biarritz, France (7602): Température de l'air & dewpoint: 14.04.2019 14:00:00 - 20.04.2019 14:00:00 (CEST)Biarritz, France (7602): Température de l'air 5cm: 14.04.2019 14:00:00 - 20.04.2019 14:00:00 (CEST)Biarritz, France (7602): Température de l'air -20cm & Température de l'air -100cm: 14.04.2019 14:00:00 - 20.04.2019 14:00:00 (CEST)Biarritz, France (7602): Vitesse du vent & gusts: 14.04.2019 14:00:00 - 20.04.2019 14:00:00 (CEST)Biarritz, France (7602): Direction du vent: 14.04.2019 14:00:00 - 20.04.2019 14:00:00 (CEST)Biarritz, France (7602): reduced air pressure: 14.04.2019 14:00:00 - 20.04.2019 14:00:00 (CEST)Biarritz, France (7602): visibility: 14.04.2019 14:00:00 - 20.04.2019 14:00:00 (CEST)Biarritz, France (7602): Ensoleillement: 14.04.2019 14:00:00 - 20.04.2019 14:00:00 (CEST)Biarritz, France (7602): Quantités de précipitations: 14.04.2019 14:00:00 - 20.04.2019 14:00:00 (CEST)
Date & Time tt [°C] td [°C] tt 5cm [°C] tt -20cm [°C] tt -100cm [°C] ff [km/h] ff [knt] fx [km/h] fx [knt] dd ppp [hPa] vv [km] sd [min] rr [mm]
20.04.2019 14:00:00 16,9 11,0 22,6 15,0 13,7 12 7 22 12 W 1021,8 18 60 0,0
20.04.2019 13:00:00 16,4 11,8 17,5 14,9 13,8 10 5 28 15 NW 1022,2 16 52 0,0
20.04.2019 12:00:00 14,5 12,0 17,1 14,8 13,7 16 8 30 16 W 1022,6 15 32 0,0
20.04.2019 11:00:00 14,6 12,3 14,4 14,8 13,7 14 8 29 16 W 1022,6 17 19 0,0
20.04.2019 10:00:00 13,7 12,4 14,0 14,8 13,7 13 7 23 12 W 1023,1 14 0 0,0
20.04.2019 09:00:00 13,1 12,0 10,5 14,9 13,7 5 3 10 6 S 1023,1 11 34 0,0
20.04.2019 08:00:00 11,2 10,6 8,7 15,0 13,7 5 3 12 6 S 1023,0 6 22 0,2
20.04.2019 07:00:00 11,1 10,5 8,9 15,2 13,7 7 4 9 5 S 1022,6 4,4 0 0,0
20.04.2019 06:00:00 11,6 10,7 9,9 15,3 13,7 5 3 13 7 WSW 1022,8 10 0 0,0
20.04.2019 05:00:00 12,8 12,5 12,1 15,4 13,7 4 2 13 7 WSW 1023,1 7 0 0,0
20.04.2019 04:00:00 13,3 13,3 10,9 15,5 13,7 7 4 12 6 SW 1023,2 2,4 0 0,0
20.04.2019 03:00:00 12,9 12,6 11,2 15,6 13,7 6 4 11 6 W 1023,4 3,0 0 0,0
20.04.2019 02:00:00 13,3 12,7 12,3 15,7 13,7 6 4 13 7 W 1023,7 8 0 0,0
20.04.2019 01:00:00 13,5 12,9 12,0 15,8 13,7 7 4 11 6 WSW 1024,0 10 0 0,0
20.04.2019 00:00:00 13,4 12,6 11,7 15,9 13,6 6 3 15 8 SW 1024,2 8 0 0,0
19.04.2019 23:00:00 14,2 12,8 13,1 16,0 13,6 10 6 14 8 WNW 1024,4 13 0 0,0
19.04.2019 22:00:00 14,5 12,7 13,9 16,0 13,6 10 5 25 13 NNW 1023,5 15 0 0,0
19.04.2019 21:00:00 15,9 11,9 15,0 16,1 13,6 15 8 21 11 NNW 1022,7 39 31 0,0
19.04.2019 20:00:00 18,0 9,6 18,2 16,0 13,6 8 5 12 6 NNW 1021,6 19 60 0,0
19.04.2019 19:00:00 19,0 10,8 21,4 16,0 13,6 6 4 16 9 NNW 1021,4 44 54 0,0
19.04.2019 18:00:00 18,6 10,9 20,6 15,8 13,6 10 5 21 12 NNW 1021,3 37 11 0,0
19.04.2019 17:00:00 18,8 11,8 21,4 15,5 13,6 9 5 16 8 NNW 1021,1 31 12 0,0
19.04.2019 16:00:00 18,9 12,2 23,1 15,2 13,6 9 5 16 9 NNW 1021,2 20 30 0,0
19.04.2019 15:00:00 18,9 12,2 22,9 14,9 13,6 7 4 16 8 N 1021,3 19 30 0,0
19.04.2019 14:00:00 17,8 11,6 21,9 14,6 13,6 7 4 26 14 NNW 1021,2 20 37 0,0
19.04.2019 13:00:00 17,2 11,5 20,3 14,4 13,6 9 5 16 9 NNW 1021,3 19 46 0,0
19.04.2019 12:00:00 15,9 12,8 17,2 14,4 13,6 7 4 17 9 WNW 1020,9 18 16 0,0
19.04.2019 11:00:00 14,7 12,2 14,4 14,4 13,6 6 3 15 8 W 1020,3 18 0 0,0
19.04.2019 10:00:00 13,1 11,8 12,7 14,4 13,6 4 2 8 5 WNW 1019,6 20 0 0,0
19.04.2019 09:00:00 12,4 11,6 11,8 14,5 13,6 4 2 7 4 SW 1019,2 16 0 0,0
19.04.2019 08:00:00 12,4 11,8 11,8 14,5 13,6 4 2 9 5 S 1018,9 14 0 0,0
19.04.2019 07:00:00 12,7 11,9 12,3 14,6 13,5 3 2 9 5 S 1018,2 13 0 0,0
19.04.2019 06:00:00 12,9 12,3 12,6 14,6 13,5 4 2 11 6 W 1017,5 13 0 0,0
19.04.2019 05:00:00 13,2 12,9 12,4 14,7 13,5 6 3 11 6 W 1017,4 9 0 0,0
19.04.2019 04:00:00 13,1 12,6 12,5 14,7 13,5 4 2 14 8 WSW 1016,7 10 0 0,0
19.04.2019 03:00:00 13,2 12,6 12,7 14,8 13,5 9 5 16 8 WNW 1017,3 12 0 0,0
19.04.2019 02:00:00 13,4 12,5 12,9 14,9 13,5 8 4 20 11 WSW 1016,9 18 0 0,0
19.04.2019 01:00:00 13,6 12,3 13,0 14,9 13,5 13 7 22 12 W 1017,1 20 0 0,0
19.04.2019 00:00:00 13,9 12,1 13,4 15,0 13,5 11 6 22 12 WSW 1017,0 30 0 0,0
18.04.2019 23:00:00 14,1 11,6 12,9 15,1 13,5 10 5 16 9 W 1016,5 18 0 0,0
18.04.2019 22:00:00 14,4 11,4 13,5 15,1 13,5 10 5 34 18 N 1015,5 39 0 0,0
18.04.2019 21:00:00 14,9 10,5 14,4 15,1 13,5 4 2 18 10 ESE 1015,5 19 0 0,0
18.04.2019 20:00:00 15,2 10,6 15,0 15,1 13,5 9 5 39 21 NNW 1015,3 53 0 0,0
18.04.2019 19:00:00 15,6 10,6 15,6 15,1 13,5 14 7 22 12 N 1015,2 33 0 0,0
18.04.2019 18:00:00 15,7 10,9 16,1 15,0 13,5 13 7 24 13 N 1015,3 31 0 0,0
18.04.2019 17:00:00 16,3 11,4 17,0 14,9 13,5 13 7 19 11 NW 1015,4 37 0 0,0
18.04.2019 16:00:00 15,8 12,7 16,3 14,7 13,5 12 6 18 10 W 1015,5 20 0 0,0
18.04.2019 15:00:00 17,6 13,9 16,1 14,6 13,4 9 5 19 10 ENE 1015,3 31 0 0,0
18.04.2019 14:00:00 16,0 13,5 14,9 14,6 13,4 8 5 15 8 ENE 1014,7 14 0 0,2
18.04.2019 13:00:00 16,5 10,8 16,4 14,5 13,4 4 2 9 5 NE 1015,0 46 0 0,0
18.04.2019 12:00:00 16,1 11,3 15,9 14,5 13,4 3 2 8 4 ESE 1015,3 36 0 0,0
18.04.2019 11:00:00 15,0 12,3 14,7 14,5 13,4 6 4 15 8 E 1014,5 37 0 0,0
18.04.2019 10:00:00 13,6 11,8 12,8 14,5 13,4 9 5 19 10 ENE 1014,0 18 0 0,0
18.04.2019 09:00:00 12,8 11,4 12,3 14,6 13,4 9 5 17 9 E 1013,0 32 0 0,0
18.04.2019 08:00:00 12,6 11,2 12,3 14,7 13,4 13 7 21 11 E 1012,5 33 0 0,0
18.04.2019 07:00:00 12,9 11,3 12,1 14,7 13,4 14 8 20 11 ENE 1011,7 38 0 0,0
18.04.2019 06:00:00 13,0 11,6 12,5 14,8 13,4 8 4 17 9 E 1011,7 34 0 0,0
18.04.2019 05:00:00 13,5 11,7 12,9 14,9 13,4 12 7 19 10 ENE 1011,5 39 0 0,0
18.04.2019 04:00:00 13,9 12,1 13,1 15,0 13,4 9 5 14 8 ENE 1011,5 38 0 0,0
18.04.2019 03:00:00 14,2 11,9 13,5 15,1 13,4 10 5 18 10 E 1011,8 44 0 0,0
18.04.2019 02:00:00 14,9 12,4 14,3 15,1 13,4 16 8 22 12 ENE 1011,7 45 0 0,0
18.04.2019 01:00:00 15,5 12,6 14,6 15,1 13,3 12 6 15 8 ENE 1011,7 48 0 0,0
18.04.2019 00:00:00 15,8 12,7 15,0 15,2 13,3 9 5 22 12 E 1011,3 50 0 0,0
17.04.2019 23:00:00 16,1 12,6 15,4 15,2 13,3 13 7 26 14 E 1010,6 53 0 0,0
17.04.2019 22:00:00 17,0 12,5 16,2 15,3 13,3 18 10 29 16 E 1009,5 59 0 0,0
17.04.2019 21:00:00 17,6 12,9 16,6 15,3 13,3 12 7 29 16 E 1009,4 60 0 0,0
17.04.2019 20:00:00 19,3 13,5 18,6 15,2 13,3 17 9 34 18 E 1008,7 58 2 0,0
17.04.2019 19:00:00 20,6 13,5 20,6 15,1 13,3 22 12 37 20 E 1008,6 46 18 0,0
17.04.2019 18:00:00 20,6 13,3 21,2 14,9 13,3 21 11 31 17 ENE 1009,1 48 21 0,0
17.04.2019 17:00:00 21,1 14,3 21,5 14,7 13,3 19 10 29 16 ENE 1009,3 20 32 0,0
17.04.2019 16:00:00 20,5 13,7 21,5 14,5 13,3 18 10 32 18 ENE 1010,1 55 37 0,0
17.04.2019 15:00:00 19,3 12,8 20,5 14,3 13,3 17 9 28 15 E 1010,5 54 0 0,0
17.04.2019 14:00:00 18,5 12,0 19,6 14,1 13,3 18 10 27 15 ENE 1010,9 54 19 0,0
17.04.2019 13:00:00 16,9 12,0 15,9 14,0 13,3 19 10 26 14 E 1011,9 47 11 0,0
17.04.2019 12:00:00 14,7 10,9 14,9 14,0 13,3 16 9 23 12 ENE 1012,1 34 0 0,0
17.04.2019 11:00:00 14,0 10,4 13,9 14,0 13,2 11 6 19 10 ENE 1012,2 51 0 0,0
17.04.2019 10:00:00 13,6 10,2 14,1 14,0 13,2 10 6 20 11 ENE 1012,0 58 26 0,0
17.04.2019 09:00:00 12,3 9,8 10,7 14,2 13,2 14 8 21 11 ENE 1012,2 49 39 0,0
17.04.2019 08:00:00 10,7 9,1 8,9 14,3 13,2 12 7 17 9 ENE 1012,6 55 18 0,0
17.04.2019 07:00:00 10,9 9,0 9,1 14,4 13,2 11 6 16 8 ENE 1012,5 60 0 0,0
17.04.2019 06:00:00 10,8 8,9 9,4 14,5 13,2 10 5 16 9 E 1012,6 60 0 0,0
17.04.2019 05:00:00 11,0 9,1 10,3 14,7 13,2 12 6 16 9 E 1013,2 60 0 0,0
17.04.2019 04:00:00 11,7 9,3 10,9 14,8 13,2 12 7 19 10 E 1013,8 60 0 0,0
17.04.2019 03:00:00 12,2 9,0 11,4 15,0 13,2 12 6 29 16 E 1014,5 60 0 0,0
17.04.2019 02:00:00 12,9 9,2 11,8 15,1 13,2 18 10 28 15 E 1014,9 60 0 0,0
17.04.2019 01:00:00 12,9 9,2 11,9 15,2 13,2 18 10 29 15 E 1015,4 60 0 0,0
17.04.2019 00:00:00 13,3 9,2 12,3 15,4 13,1 15 8 30 16 E 1015,8 60 0 0,0
16.04.2019 23:00:00 13,7 9,1 12,8 15,5 13,1 16 9 27 14 E 1016,2 60 0 0,0
16.04.2019 22:00:00 15,2 9,1 14,2 15,6 13,1 17 9 27 15 E 1016,4 60 0 0,0
16.04.2019 21:00:00 15,8 9,0 14,8 15,7 13,1 16 9 30 16 E 1016,2 60 0 0,0
16.04.2019 20:00:00 17,1 9,3 16,3 15,7 13,1 19 10 36 19 E 1016,3 60 42 0,0
16.04.2019 19:00:00 18,4 8,9 19,1 15,7 13,1 18 10 32 18 E 1016,7 51 54 0,0
16.04.2019 18:00:00 19,1 9,3 22,2 15,6 13,1 17 9 34 18 ENE 1017,3 23 60 0,0
16.04.2019 17:00:00 17,5 11,5 22,0 15,3 13,1 14 8 30 16 ENE 1017,9 18 60 0,0
16.04.2019 16:00:00 17,5 11,3 19,3 15,0 13,0 15 8 27 15 E 1018,4 19 57 0,0
16.04.2019 15:00:00 16,2 11,1 18,0 14,6 13,0 11 6 32 17 NE 1019,3 20 47 0,0
16.04.2019 14:00:00 16,1 10,8 21,4 14,3 13,0 11 6 20 11 NNE 1019,9 20 57 0,0
16.04.2019 13:00:00 15,2 10,6 18,0 14,0 13,0 10 5 19 10 N 1020,6 19 39 0,0
16.04.2019 12:00:00 14,5 10,5 16,1 13,8 13,0 6 3 15 8 W 1021,0 18 23 0,0
16.04.2019 11:00:00 14,5 10,7 12,2 13,7 13,0 6 3 18 10 W 1021,0 18 43 0,0
16.04.2019 10:00:00 12,9 11,3 11,7 13,7 13,0 10 6 17 9 W 1021,2 7 39 0,2
16.04.2019 09:00:00 11,1 10,2 10,4 13,8 13,0 6 4 16 9 SSW 1021,0 42 0 0,0
16.04.2019 08:00:00 11,0 10,5 10,5 13,9 13,0 5 3 18 10 SSW 1020,3 7 0 0,2
16.04.2019 07:00:00 11,2 10,7 10,4 13,9 13,0 9 5 26 14 WSW 1019,8 13 0 0,0
16.04.2019 06:00:00 11,5 10,7 10,5 14,1 13,0 13 7 34 19 WSW 1019,3 17 0 0,0
16.04.2019 05:00:00 11,6 10,3 10,5 14,2 13,0 - - - - - 1019,0 20 0 1,0
16.04.2019 04:00:00 11,6 11,0 11,1 14,2 12,9 26 14 43 23 WNW 1019,0 6 0 0,2
16.04.2019 03:00:00 12,4 11,3 11,5 14,3 13,0 9 5 22 12 WSW 1018,7 20 0 0,0
16.04.2019 02:00:00 12,2 11,3 11,4 14,4 12,9 10 5 23 12 WSW 1018,8 20 0 0,0
16.04.2019 01:00:00 12,1 11,6 11,6 14,5 12,9 9 5 19 11 SW 1018,6 20 0 0,6
16.04.2019 00:00:00 12,2 11,6 11,6 14,6 12,9 9 5 20 11 SW 1017,8 46 0 0,8
15.04.2019 23:00:00 12,6 12,1 12,1 14,6 12,9 7 4 - - SW 1017,2 12 0 0,4
15.04.2019 22:00:00 12,7 12,2 12,2 14,7 12,9 - - - - - 1016,1 4,5 0 3,7
15.04.2019 21:00:00 13,4 13,2 13,0 14,7 12,9 24 13 58 31 W 1015,1 2,8 0 3,6
15.04.2019 20:00:00 13,6 13,4 13,3 14,7 12,9 27 15 55 30 W 1012,4 2,8 0 3,4
15.04.2019 19:00:00 14,5 13,9 13,7 14,6 12,9 26 14 87 47 W 1011,9 2,8 0 5,3
15.04.2019 18:00:00 19,2 12,2 18,2 14,4 12,9 13 7 57 31 SE 1008,1 18 0 0,0
15.04.2019 17:00:00 23,4 14,7 24,2 14,2 12,9 10 6 16 9 ENE 1006,4 58 0 0,0
15.04.2019 16:00:00 23,8 15,3 24,0 13,9 12,9 5 3 13 7 ESE 1007,1 53 0 0,0
15.04.2019 15:00:00 23,2 14,5 24,1 13,7 12,9 7 4 14 8 NE 1007,9 60 0 0,0
15.04.2019 14:00:00 24,1 12,4 25,2 13,4 12,9 10 5 20 11 ENE 1008,0 57 2 0,0
15.04.2019 13:00:00 23,4 14,7 21,3 13,2 12,9 14 8 20 11 ENE 1008,6 56 18 0,0
15.04.2019 12:00:00 19,2 13,8 19,2 13,0 12,9 9 5 18 10 E 1009,5 42 0 0,0
15.04.2019 11:00:00 16,9 12,4 16,8 13,0 12,9 11 6 18 10 E 1010,2 20 9 0,0
15.04.2019 10:00:00 14,8 10,8 13,9 13,0 12,9 11 6 23 12 ESE 1011,0 25 57 0,0
15.04.2019 09:00:00 12,3 10,0 10,5 13,0 12,9 12 6 20 11 E 1011,6 25 50 0,0
15.04.2019 08:00:00 10,6 9,0 9,7 13,1 12,8 11 6 26 14 E 1012,0 20 14 0,0
15.04.2019 07:00:00 10,1 8,7 8,7 13,3 12,9 18 10 27 15 E 1012,2 20 0 0,0
15.04.2019 06:00:00 9,7 8,5 9,1 13,4 12,9 11 6 21 12 E 1013,0 18 0 0,0
15.04.2019 05:00:00 10,0 8,4 9,3 13,5 12,9 15 8 19 11 E 1013,4 19 0 0,0
15.04.2019 04:00:00 10,7 8,3 9,3 13,5 12,8 15 8 21 11 ENE 1014,1 20 0 0,0
15.04.2019 03:00:00 10,4 8,2 9,5 13,6 12,8 11 6 17 9 E 1015,3 26 0 0,0
15.04.2019 02:00:00 10,7 8,1 9,0 13,8 12,8 9 5 14 8 ENE 1016,2 32 0 0,0
15.04.2019 01:00:00 11,5 8,5 9,1 13,9 12,8 8 5 14 8 SE 1016,9 30 0 0,0
15.04.2019 00:00:00 12,0 8,8 9,9 14,0 12,8 7 4 11 6 ENE 1017,3 25 0 0,0
14.04.2019 23:00:00 12,5 8,8 10,0 14,0 12,8 7 4 14 8 E 1017,3 27 0 0,0
14.04.2019 22:00:00 13,8 8,0 12,0 14,1 12,8 8 4 22 12 ENE 1017,3 29 0 0,0
14.04.2019 21:00:00 14,3 8,7 13,1 14,1 12,8 10 5 12 7 N 1016,9 26 4 0,0
14.04.2019 20:00:00 16,7 10,5 17,0 14,1 12,8 5 3 6 4 N 1016,7 19 16 0,0
14.04.2019 19:00:00 17,7 7,7 19,2 14,0 12,8 3 2 10 6 W 1016,9 53 25 0,0
14.04.2019 18:00:00 17,4 10,0 17,8 13,8 12,8 5 3 18 10 S 1017,2 19 27 0,0
14.04.2019 17:00:00 16,2 8,2 16,9 13,7 12,8 10 5 16 9 E 1017,6 20 0 0,0
14.04.2019 16:00:00 15,4 8,8 16,4 13,4 12,8 6 3 18 10 NW 1017,9 18 0 0,0
14.04.2019 15:00:00 16,4 9,6 19,6 13,2 12,8 5 3 14 8 NNE 1017,4 18 21 0,0
14.04.2019 14:00:00 15,9 10,2 17,5 13,0 12,8 7 4 18 10 NNE 1017,6 13 11 0,0

tt = Température de l'air
td = dewpoint
tt 5cm = Température de l'air 5cm
tt -20cm = Température de l'air -20cm
tt -100cm = Température de l'air -100cm
ff = Vitesse du vent
fx = gusts
dd = Direction du vent
ppp = reduced air pressure
vv = visibility
sd = Ensoleillement
rr = Quantités de précipitations

stations d'obs. à proximité